Location: Beaurecueil
(43.5122°N, 5.5450°E)
Time: 20:16:03
(UTC+00:00)

HJ-1C - Pass Details

Date: 18 September 2020
Orbit: 432 x 443 km, 97.1° (Epoch: 28 October)

Event Time Altitude Azimuth Distance (km) Brightness Sun altitude
Rises 18:23:27 0° 158° (SSE) 2,394 6.8 -8.3°
Reaches altitude 10° 18:25:28 10° 153° (SSE) 1,532 5.7 -8.7°
Maximum altitude 18:28:41 55° 75° (ENE) 525 3.4 -9.2°
Drops below altitude 10° 18:31:56 10° 357° (N) 1,548 6.3 -9.8°
Sets 18:33:59 0° 353° (N) 2,423 7.4 -10.2°
